| time (UTC) | temp C | wind direction | speed KPH | gust KPH | rain 1hr cm | rain 24hr cm | rain mn cm | humidity % | barometer mb |
| 20260503201247 | 17 | 302 | 8.0 | 11.3 | 0.00 | 0.00 | 0.00 | 31 | 1050.4 |
| 20260503200743 | 17 | 300 | 3.2 | 4.8 | 0.00 | 0.00 | 0.00 | 33 | 1050.6 |
| 20260503200239 | 17 | 323 | 6.4 | 12.9 | 0.00 | 0.00 | 0.00 | 31 | 1050.5 |
| 20260503195737 | 18 | 242 | 6.4 | 11.3 | 0.00 | 0.00 | 0.00 | 30 | 1050.8 |
| 20260503195233 | 17 | 226 | 3.2 | 6.4 | 0.00 | 0.00 | 0.00 | 38 | 1050.6 |
| 20260503194732 | 17 | 280 | 9.7 | 11.3 | 0.00 | 0.00 | 0.00 | 33 | 1050.8 |
| 20260503194226 | 17 | 275 | 3.2 | 11.3 | 0.00 | 0.00 | 0.00 | 35 | 1051.0 |
| 20260503193723 | 16 | 182 | 6.4 | 12.9 | 0.00 | 0.00 | 0.00 | 32 | 1050.8 |
| 20260503193219 | 17 | 213 | 9.7 | 16.1 | 0.00 | 0.00 | 0.00 | 30 | 1051.1 |
| 20260503192715 | 17 | 198 | 8.0 | 11.3 | 0.00 | 0.00 | 0.00 | 31 | 1051.1 |
| 20260503192210 | 17 | 297 | 8.0 | 16.1 | 0.00 | 0.00 | 0.00 | 31 | 1051.2 |
| 20260503191707 | 16 | 196 | 6.4 | 9.7 | 0.00 | 0.00 | 0.00 | 34 | 1051.4 |
| 20260503191204 | 16 | 261 | 4.8 | 16.1 | 0.00 | 0.00 | 0.00 | 36 | 1051.2 |
| 20260503190701 | 17 | 241 | 6.4 | 16.1 | 0.00 | 0.00 | 0.00 | 30 | 1051.2 |
| 20260503190158 | 17 | 300 | 6.4 | 9.7 | 0.00 | 0.00 | 0.00 | 33 | 1051.2 |
| 20260503185655 | 16 | 214 | 3.2 | 12.9 | 0.00 | 0.00 | 0.00 | 37 | 1051.5 |
| 20260503185150 | 16 | 156 | 6.4 | 9.7 | 0.00 | 0.00 | 0.00 | 31 | 1051.4 |
| 20260503184645 | 16 | 304 | 8.0 | 12.9 | 0.00 | 0.00 | 0.00 | 38 | 1051.7 |
| 20260503184142 | 16 | 213 | 11.3 | 14.5 | 0.00 | 0.00 | 0.00 | 33 | 1051.8 |
| 20260503183638 | 16 | 205 | 3.2 | 11.3 | 0.00 | 0.00 | 0.00 | 34 | 1051.6 |
| 20260503183136 | 16 | 177 | 4.8 | 9.7 | 0.00 | 0.00 | 0.00 | 33 | 1051.8 |
| 20260503182634 | 16 | 223 | 9.7 | 11.3 | 0.00 | 0.00 | 0.00 | 33 | 1052.0 |
| 20260503182132 | 16 | 206 | 4.8 | 11.3 | 0.00 | 0.00 | 0.00 | 33 | 1052.0 |
| 20260503181629 | 16 | 218 | 9.7 | 14.5 | 0.00 | 0.00 | 0.00 | 32 | 1052.1 |
| 20260503181125 | 16 | 200 | 8.0 | 9.7 | 0.00 | 0.00 | 0.00 | 28 | 1052.3 |
| 20260503180622 | 16 | 293 | 3.2 | 9.7 | 0.00 | 0.00 | 0.00 | 40 | 1052.5 |
| 20260503180120 | 16 | 274 | 3.2 | 9.7 | 0.00 | 0.00 | 0.00 | 37 | 1052.3 |
| 20260503175617 | 16 | 221 | 11.3 | 12.9 | 0.00 | 0.00 | 0.00 | 33 | 1052.5 |
| 20260503175114 | 16 | 131 | 3.2 | 4.8 | 0.00 | 0.00 | 0.00 | 41 | 1052.5 |
| 20260503174611 | 16 | 242 | 0.0 | 4.8 | 0.00 | 0.00 | 0.00 | 37 | 1052.4 |
| 20260503174108 | 15 | 240 | 4.8 | 6.4 | 0.00 | 0.00 | 0.00 | 37 | 1052.5 |
| 20260503173602 | 15 | 218 | 4.8 | 14.5 | 0.00 | 0.00 | 0.00 | 35 | 1052.8 |
| 20260503173059 | 15 | 280 | 6.4 | 9.7 | 0.00 | 0.00 | 0.00 | 34 | 1052.9 |
| 20260503172556 | 15 | 15 | 3.2 | 9.7 | 0.00 | 0.00 | 0.00 | 33 | 1052.9 |
| 20260503172054 | 16 | 232 | 3.2 | 16.1 | 0.00 | 0.00 | 0.00 | 31 | 1053.1 |
| 20260503171550 | 16 | 284 | 3.2 | 9.7 | 0.00 | 0.00 | 0.00 | 38 | 1053.1 |
| 20260503171047 | 15 | 245 | 1.6 | 9.7 | 0.00 | 0.00 | 0.00 | 34 | 1053.3 |
| 20260503170543 | 15 | 80 | 1.6 | 12.9 | 0.00 | 0.00 | 0.00 | 38 | 1053.2 |
| 20260503150936 | 14 | 158 | 3.2 | 6.4 | 0.00 | 0.00 | 0.00 | 33 | 1054.5 |
| 20260503150433 | 14 | 267 | 4.8 | 9.7 | 0.00 | 0.00 | 0.00 | 39 | 1054.3 |
| 20260503131326 | 10 | 223 | 0.0 | 1.6 | 0.00 | 0.00 | 0.00 | 66 | 1054.3 |
| 20260503130823 | 10 | 209 | 1.6 | 1.6 | 0.00 | 0.00 | 0.00 | 69 | 1054.4 |
| 20260503130321 | 10 | 217 | 1.6 | 1.6 | 0.00 | 0.00 | 0.00 | 67 | 1054.3 |
| 20260503110714 | -1 | 344 | 0.0 | 0.0 | 0.00 | 0.00 | 0.00 | 97 | 1053.5 |
| 20260503110211 | -1 | 344 | 0.0 | 0.0 | 0.00 | 0.00 | 0.00 | 97 | 1053.5 |
| 20260503100138 | -1 | 344 | 0.0 | 0.0 | 0.00 | 0.00 | 0.00 | 97 | 1053.2 |
| 20260503081532 | 0 | 344 | 0.0 | 0.0 | 0.00 | 0.00 | 0.00 | 97 | 1052.7 |
| 20260503081030 | 0 | 344 | 0.0 | 0.0 | 0.00 | 0.00 | 0.00 | 97 | 1052.7 |
| 20260503080526 | 0 | 344 | 0.0 | 0.0 | 0.00 | 0.00 | 0.00 | 97 | 1052.6 |
| 20260503072500 | 0 | 344 | 0.0 | 0.0 | 0.00 | 0.00 | 0.00 | 96 | 1052.5 |
| 20260503071957 | 0 | 344 | 0.0 | 0.0 | 0.00 | 0.00 | 0.00 | 96 | 1052.6 |
| 20260503071454 | 0 | 344 | 0.0 | 0.0 | 0.00 | 0.00 | 0.00 | 96 | 1052.6 |
| 20260503070949 | 0 | 344 | 0.0 | 0.0 | 0.00 | 0.00 | 0.00 | 96 | 1052.4 |
| 20260503070447 | 0 | 344 | 0.0 | 0.0 | 0.00 | 0.00 | 0.00 | 96 | 1052.6 |
| 20260503054900 | 0 | 344 | 0.0 | 0.0 | 0.00 | 0.00 | 0.00 | 96 | 1052.6 |
| 20260503054356 | 0 | 344 | 0.0 | 0.0 | 0.00 | 0.00 | 0.00 | 95 | 1052.6 |
| 20260503053854 | 0 | 344 | 0.0 | 0.0 | 0.00 | 0.00 | 0.00 | 95 | 1052.6 |
| 20260503053352 | 0 | 344 | 0.0 | 0.0 | 0.00 | 0.00 | 0.00 | 95 | 1052.6 |
| 20260503052848 | 0 | 344 | 0.0 | 0.0 | 0.00 | 0.00 | 0.00 | 95 | 1052.7 |
| 20260503052345 | 0 | 344 | 0.0 | 0.0 | 0.00 | 0.00 | 0.00 | 95 | 1052.7 |
| 20260503051841 | 0 | 344 | 0.0 | 0.0 | 0.00 | 0.00 | 0.00 | 95 | 1052.5 |
| 20260503051338 | 1 | 344 | 0.0 | 0.0 | 0.00 | 0.00 | 0.00 | 95 | 1052.7 |
| 20260503050835 | 1 | 344 | 0.0 | 0.0 | 0.00 | 0.00 | 0.00 | 95 | 1052.7 |
| 20260503050331 | 1 | 344 | 0.0 | 0.0 | 0.00 | 0.00 | 0.00 | 95 | 1052.4 |
| 20260503045829 | 1 | 344 | 0.0 | 0.0 | 0.00 | 0.00 | 0.00 | 95 | 1052.6 |
| 20260503045326 | 1 | 344 | 0.0 | 0.0 | 0.00 | 0.00 | 0.00 | 94 | 1052.4 |
| 20260503044822 | 1 | 344 | 0.0 | 0.0 | 0.00 | 0.00 | 0.00 | 94 | 1052.8 |
| 20260503044319 | 1 | 344 | 0.0 | 0.0 | 0.00 | 0.00 | 0.00 | 94 | 1052.5 |
| 20260503043817 | 1 | 344 | 0.0 | 0.0 | 0.00 | 0.00 | 0.00 | 94 | 1052.5 |
| 20260503043313 | 2 | 344 | 0.0 | 0.0 | 0.00 | 0.00 | 0.00 | 94 | 1052.6 |
| 20260503042809 | 2 | 344 | 0.0 | 0.0 | 0.00 | 0.00 | 0.00 | 94 | 1052.4 |
| 20260503042306 | 2 | 344 | 0.0 | 0.0 | 0.00 | 0.00 | 0.00 | 94 | 1052.3 |
| 20260503041802 | 2 | 344 | 0.0 | 0.0 | 0.00 | 0.00 | 0.00 | 93 | 1052.4 |
| 20260503041300 | 2 | 344 | 0.0 | 0.0 | 0.00 | 0.00 | 0.00 | 93 | 1052.5 |
| 20260503040758 | 2 | 344 | 0.0 | 0.0 | 0.00 | 0.00 | 0.00 | 93 | 1052.3 |
| 20260503040255 | 2 | 344 | 0.0 | 0.0 | 0.00 | 0.00 | 0.00 | 93 | 1052.0 |
| 20260503035752 | 2 | 344 | 0.0 | 0.0 | 0.00 | 0.00 | 0.00 | 93 | 1052.3 |
| 20260503035249 | 3 | 344 | 0.0 | 0.0 | 0.00 | 0.00 | 0.00 | 92 | 1052.2 |
| 20260503034746 | 3 | 344 | 0.0 | 0.0 | 0.00 | 0.00 | 0.00 | 92 | 1052.2 |
| 20260503034243 | 3 | 344 | 0.0 | 0.0 | 0.00 | 0.00 | 0.00 | 92 | 1052.2 |
| 20260503033740 | 3 | 344 | 0.0 | 0.0 | 0.00 | 0.00 | 0.00 | 92 | 1052.0 |
| 20260503033238 | 3 | 344 | 0.0 | 0.0 | 0.00 | 0.00 | 0.00 | 92 | 1052.0 |
| 20260503032736 | 3 | 344 | 0.0 | 0.0 | 0.00 | 0.00 | 0.00 | 91 | 1052.3 |
| 20260503032234 | 3 | 344 | 0.0 | 0.0 | 0.00 | 0.00 | 0.00 | 91 | 1051.9 |
| 20260503031731 | 4 | 343 | 0.0 | 0.0 | 0.00 | 0.00 | 0.00 | 91 | 1051.9 |
| 20260503031229 | 4 | 343 | 0.0 | 0.0 | 0.00 | 0.00 | 0.00 | 91 | 1052.0 |
| 20260503030725 | 4 | 343 | 0.0 | 0.0 | 0.00 | 0.00 | 0.00 | 92 | 1052.0 |
| 20260503030221 | 4 | 343 | 0.0 | 0.0 | 0.00 | 0.00 | 0.00 | 92 | 1051.9 |
| 20260503025719 | 4 | 343 | 0.0 | 0.0 | 0.00 | 0.00 | 0.00 | 92 | 1052.2 |
| 20260503025216 | 3 | 343 | 0.0 | 0.0 | 0.00 | 0.00 | 0.00 | 92 | 1052.1 |
| 20260503024713 | 3 | 343 | 0.0 | 0.0 | 0.00 | 0.00 | 0.00 | 91 | 1051.9 |
| 20260503024210 | 3 | 344 | 0.0 | 0.0 | 0.00 | 0.00 | 0.00 | 91 | 1051.8 |
| 20260503023707 | 3 | 344 | 0.0 | 0.0 | 0.00 | 0.00 | 0.00 | 91 | 1051.8 |
| 20260503023203 | 3 | 344 | 0.0 | 0.0 | 0.00 | 0.00 | 0.00 | 90 | 1051.6 |
| 20260503022700 | 3 | 344 | 0.0 | 0.0 | 0.00 | 0.00 | 0.00 | 89 | 1051.8 |
| 20260503022159 | 3 | 344 | 0.0 | 0.0 | 0.00 | 0.00 | 0.00 | 89 | 1051.5 |
| 20260503021656 | 4 | 344 | 0.0 | 0.0 | 0.00 | 0.00 | 0.00 | 89 | 1051.6 |
| 20260503021153 | 4 | 344 | 0.0 | 0.0 | 0.00 | 0.00 | 0.00 | 88 | 1051.5 |
| 20260503020650 | 4 | 344 | 0.0 | 0.0 | 0.00 | 0.00 | 0.00 | 86 | 1051.4 |
| 20260503020148 | 5 | 343 | 0.0 | 0.0 | 0.00 | 0.00 | 0.00 | 85 | 1051.4 |
| 20260503015644 | 5 | 343 | 0.0 | 0.0 | 0.00 | 0.00 | 0.00 | 84 | 1051.2 |
| 20260503015141 | 6 | 343 | 0.0 | 0.0 | 0.00 | 0.00 | 0.00 | 83 | 1051.1 |
| 20260503014637 | 6 | 343 | 0.0 | 0.0 | 0.00 | 0.00 | 0.00 | 80 | 1051.2 |
| 20260503014135 | 6 | 343 | 0.0 | 0.0 | 0.00 | 0.00 | 0.00 | 80 | 1051.0 |
| 20260503013632 | 7 | 343 | 0.0 | 0.0 | 0.00 | 0.00 | 0.00 | 81 | 1051.2 |
| 20260503013130 | 7 | 343 | 0.0 | 0.0 | 0.00 | 0.00 | 0.00 | 78 | 1051.0 |
| 20260503012627 | 7 | 343 | 0.0 | 0.0 | 0.00 | 0.00 | 0.00 | 75 | 1050.8 |
| 20260503012124 | 7 | 343 | 0.0 | 0.0 | 0.00 | 0.00 | 0.00 | 72 | 1050.7 |
| 20260503011620 | 7 | 343 | 0.0 | 0.0 | 0.00 | 0.00 | 0.00 | 73 | 1050.8 |
| 20260503011118 | 8 | 343 | 0.0 | 0.0 | 0.00 | 0.00 | 0.00 | 79 | 1050.8 |
| 20260503010614 | 8 | 343 | 0.0 | 0.0 | 0.00 | 0.00 | 0.00 | 72 | 1050.6 |
| 20260503010111 | 8 | 343 | 0.0 | 0.0 | 0.00 | 0.00 | 0.00 | 75 | 1050.6 |
| 20260503005608 | 8 | 343 | 0.0 | 0.0 | 0.00 | 0.00 | 0.00 | 71 | 1050.5 |
| 20260503005105 | 8 | 343 | 0.0 | 0.0 | 0.00 | 0.00 | 0.00 | 73 | 1050.5 |
| 20260503004601 | 8 | 343 | 0.0 | 0.0 | 0.00 | 0.00 | 0.00 | 71 | 1050.5 |
| 20260503004100 | 8 | 4 | 0.0 | 0.0 | 0.00 | 0.00 | 0.00 | 71 | 1050.5 |
| 20260503003556 | 8 | 4 | 0.0 | 0.0 | 0.00 | 0.00 | 0.00 | 69 | 1050.4 |
| 20260503003053 | 9 | 4 | 0.0 | 0.0 | 0.00 | 0.00 | 0.00 | 65 | 1050.3 |
| 20260503002550 | 9 | 4 | 0.0 | 0.0 | 0.00 | 0.00 | 0.00 | 62 | 1050.4 |
| 20260503002047 | 10 | 4 | 0.0 | 0.0 | 0.00 | 0.00 | 0.00 | 64 | 1050.4 |
| 20260503001543 | 10 | 3 | 1.6 | 1.6 | 0.00 | 0.00 | 0.00 | 60 | 1050.3 |
| 20260503001041 | 10 | 4 | 0.0 | 0.0 | 0.00 | 0.00 | 0.00 | 68 | 1049.9 |
| 20260503000538 | 10 | 4 | 0.0 | 0.0 | 0.00 | 0.00 | 0.00 | 68 | 1049.8 |
| 20260503000035 | 10 | 4 | 0.0 | 0.0 | 0.00 | 0.00 | 0.00 | 65 | 1049.9 |
| 20260502235531 | 10 | 4 | 0.0 | 0.0 | 0.00 | 0.00 | 0.00 | 63 | 1050.0 |
| 20260502235030 | 10 | 5 | 0.0 | 0.0 | 0.00 | 0.00 | 0.00 | 62 | 1050.2 |
| 20260502234525 | 11 | 337 | 0.0 | 0.0 | 0.00 | 0.00 | 0.00 | 59 | 1049.8 |
| 20260502234023 | 11 | 337 | 0.0 | 1.6 | 0.00 | 0.00 | 0.00 | 58 | 1049.9 |
| 20260502233518 | 11 | 319 | 0.0 | 3.2 | 0.00 | 0.00 | 0.00 | 54 | 1049.8 |
| 20260502233015 | 11 | 29 | 0.0 | 3.2 | 0.00 | 0.00 | 0.00 | 51 | 1049.8 |
| 20260502232511 | 12 | 83 | 1.6 | 1.6 | 0.00 | 0.00 | 0.00 | 58 | 1050.0 |
| 20260502232009 | 12 | 300 | 0.0 | 1.6 | 0.00 | 0.00 | 0.00 | 56 | 1049.8 |
| 20260502231505 | 12 | 283 | 4.8 | 6.4 | 0.00 | 0.00 | 0.00 | 51 | 1049.8 |
| 20260502231003 | 12 | 291 | 0.0 | 1.6 | 0.00 | 0.00 | 0.00 | 54 | 1049.9 |
| 20260502230501 | 12 | 279 | 1.6 | 3.2 | 0.00 | 0.00 | 0.00 | 54 | 1049.7 |
| 20260502225959 | 12 | 307 | 1.6 | 1.6 | 0.00 | 0.00 | 0.00 | 52 | 1049.8 |
| 20260502225455 | 13 | 328 | 1.6 | 3.2 | 0.00 | 0.00 | 0.00 | 52 | 1049.9 |
| 20260502224952 | 13 | 4 | 1.6 | 1.6 | 0.00 | 0.00 | 0.00 | 50 | 1049.7 |
| 20260502224448 | 13 | 291 | 1.6 | 1.6 | 0.00 | 0.00 | 0.00 | 53 | 1049.6 |
| 20260502223945 | 12 | 284 | 1.6 | 3.2 | 0.00 | 0.00 | 0.00 | 51 | 1050.2 |
| 20260502223443 | 12 | 298 | 3.2 | 3.2 | 0.00 | 0.00 | 0.00 | 54 | 1050.0 |
| 20260502222941 | 12 | 304 | 3.2 | 1.6 | 0.00 | 0.00 | 0.00 | 54 | 1050.1 |
| 20260502222438 | 12 | 303 | 1.6 | 3.2 | 0.00 | 0.00 | 0.00 | 54 | 1050.0 |
| 20260502221934 | 12 | 292 | 0.0 | 1.6 | 0.00 | 0.00 | 0.00 | 55 | 1049.8 |
| 20260502221430 | 12 | 302 | 0.0 | 1.6 | 0.00 | 0.00 | 0.00 | 55 | 1050.1 |
| 20260502220927 | 12 | 302 | 0.0 | 0.0 | 0.00 | 0.00 | 0.00 | 55 | 1049.9 |
| 20260502220423 | 12 | 301 | 1.6 | 1.6 | 0.00 | 0.00 | 0.00 | 53 | 1050.1 |
| 20260502215920 | 12 | 308 | 1.6 | 3.2 | 0.00 | 0.00 | 0.00 | 52 | 1050.0 |
| 20260502215417 | 12 | 298 | 1.6 | 1.6 | 0.00 | 0.00 | 0.00 | 56 | 1050.0 |
| 20260502214914 | 12 | 298 | 1.6 | 3.2 | 0.00 | 0.00 | 0.00 | 56 | 1049.9 |
| 20260502214411 | 12 | 319 | 1.6 | 1.6 | 0.00 | 0.00 | 0.00 | 56 | 1049.7 |
| 20260502213908 | 12 | 324 | 0.0 | 1.6 | 0.00 | 0.00 | 0.00 | 53 | 1049.7 |
| 20260502213405 | 12 | 327 | 1.6 | 1.6 | 0.00 | 0.00 | 0.00 | 55 | 1049.7 |
| 20260502212904 | 12 | 332 | 1.6 | 3.2 | 0.00 | 0.00 | 0.00 | 55 | 1049.8 |
| 20260502212402 | 12 | 293 | 0.0 | 1.6 | 0.00 | 0.00 | 0.00 | 52 | 1049.9 |
| 20260502211859 | 12 | 296 | 1.6 | 3.2 | 0.00 | 0.00 | 0.00 | 50 | 1050.0 |
| 20260502211359 | 12 | 314 | 1.6 | 1.6 | 0.00 | 0.00 | 0.00 | 53 | 1049.8 |
| 20260502210857 | 12 | 291 | 1.6 | 4.8 | 0.00 | 0.00 | 0.00 | 51 | 1049.8 |
| 20260502210354 | 13 | 309 | 3.2 | 6.4 | 0.00 | 0.00 | 0.00 | 49 | 1049.8 |
| 20260502205852 | 13 | 297 | 3.2 | 4.8 | 0.00 | 0.00 | 0.00 | 52 | 1049.6 |
| 20260502205347 | 13 | 297 | 3.2 | 4.8 | 0.00 | 0.00 | 0.00 | 50 | 1049.7 |
| 20260502204844 | 13 | 289 | 3.2 | 4.8 | 0.00 | 0.00 | 0.00 | 50 | 1049.8 |
| 20260502204342 | 13 | 346 | 1.6 | 1.6 | 0.00 | 0.00 | 0.00 | 52 | 1049.9 |
| 20260502203839 | 14 | 296 | 1.6 | 3.2 | 0.00 | 0.00 | 0.00 | 51 | 1049.8 |
| 20260502203337 | 13 | 288 | 1.6 | 1.6 | 0.00 | 0.00 | 0.00 | 49 | 1049.7 |
| 20260502202832 | 13 | 302 | 1.6 | 3.2 | 0.00 | 0.00 | 0.00 | 49 | 1049.8 |
| 20260502202330 | 12 | 13 | 1.6 | 3.2 | 0.00 | 0.00 | 0.00 | 49 | 1050.1 |
| 20260502201827 | 12 | 307 | 3.2 | 6.4 | 0.00 | 0.00 | 0.00 | 49 | 1050.0 |